Location: Ambatotampy
(18.8181°S, 47.6186°E)
Time: 18:51:49
(UTC+00:00)

Meteosat 1 Rocket2 - Pass Details

Date: 21 January 2021
Orbit: 485 x 2306 km, 28.3° (Epoch: 08 March)

Event Time Altitude Azimuth Distance (km) Brightness Sun altitude
Exits shadow 01:30:19 16° 257° (WSW) 1,337 4.3 -13.5°
Maximum altitude 01:32:49 37° 195° (SSW) 796 3.7 -12.9°
Drops below altitude 10° 01:36:36 10° 126° (SE) 1,854 7.0 -12.1°
Sets 01:39:16 0° 117° (ESE) 2,927 8.8 -11.6°
